Regional Weather Roundup
Issued by NWS Sioux Falls, SD

Home | Current Version | Previous Version | Graphics & Text | Print | Product List | Glossary Off
Versions: 1 2 3 4 5 6 7 8 9 10 11 12 13 14 15 16 17 18 19 20 21 22 23 24 25 26 27 28 29 30 31 32 33 34 35 36 37 38 39 40 41 42 43 44 45 46 47 48 49 50

000
ASUS43 KFSD 091210
RWRFSD

WEATHER ROUNDUP FOR SE SOUTH DAKOTA/SW MINNESOTA/NW IOWA
NATIONAL WEATHER SERVICE SIOUX FALLS SD
600 AM CST TUE FEB 09 2016

NOTE: "FAIR" INDICATES FEW OR NO CLOUDS BELOW 12,000 FEET WITH NO
SIGNIFICANT WEATHER AND OR OBSTRUCTIONS TO VISIBILITY.


SDZ038>040-050-052>070-091300-
SOUTHEAST SOUTH DAKOTA

CITY           SKY/WX    TMP DP  RH WIND       PRES   REMARKS
BROOKINGS      CLEAR      4  -2  76 N10       30.18R WCI -11
CHAMBERLAIN    CLOUDY    20  10  66 N10       30.27R WCI   9
6HR MIN TEMP:  20; 6HR MAX TEMP:  26;

HURON          CLOUDY    13   7  77 N16       30.27S WCI  -3
6HR MIN TEMP:  12; 6HR MAX TEMP:  17;

MADISON        FAIR       5   3  92 N15       30.18S WCI -13
MITCHELL       CLOUDY    14   8  77 NW13      30.28S WCI   0
6HR MIN TEMP:  14; 6HR MAX TEMP:  19;

SIOUX FALLS    CLEAR      7   0  73 N20       30.18R WCI -13
6HR MIN TEMP:   7; 6HR MAX TEMP:  14;

WINNER         CLOUDY    23  11  60 N13       30.26R WCI  11
YANKTON        PTCLDY    14   5  67 N21G30    30.24R WCI  -4
$$

MNZ071-072-080-081-089-090-097-098-091300-
SOUTHWEST MINNESOTA

CITY           SKY/WX    TMP DP  RH WIND       PRES   REMARKS
FAIRMONT       CLEAR      5  -2  72 NW21      30.06S WCI -16
JACKSON        CLOUDY     5   0  78 NW31G39   30.08R HAZE    WCI -19
LUVERNE        CLEAR      9   1  72 N18G24    30.16R WCI -10
MARSHALL       CLEAR      5   0  79 N24G31    30.18R WCI -17
6HR MIN TEMP:   5; 6HR MAX TEMP:   9; 6HR PCP: TRACE;

MONTEVIDEO     CLEAR      3   0  85 N15       30.21R WCI -15
PIPESTONE      CLEAR      7  -4  61 N15G21    30.14R WCI -11
REDWOOD FALLS  CLEAR      5   0  79 NW14G23   30.15R WCI -12
TRACY          CLEAR      6   2  83 N20G29    30.15R WCI -14
WINDOM         MOCLDY     3   0  85 NW26      30.10R FOG     WCI -20
WORTHINGTON    CLOUDY     3  -2  78 N23       30.12R WCI -19
$$

IAZ001>003-012>014-020>022-031-032-NEZ013-014-SDZ071-091300-
NORTHWEST IOWA

CITY           SKY/WX    TMP DP  RH WIND       PRES   REMARKS
CHEROKEE       MOCLDY     6   2  84 N13       30.15R WCI -10
DENISON        CLOUDY     9   3  78 N17G26    30.11S WCI -10
ESTHERVILLE    CLOUDY     4   1  88 NW25      30.09R FOG     WCI -19
LE MARS        PTCLDY    10   3  72 N16G23    30.21R WCI  -7
ORANGE CITY    CLEAR      7   1  78 NW10G16   30.15R WCI  -8
SHELDON        CLOUDY     5   0  78 N20       30.13R WCI -15
SIOUX CITY     PTCLDY    13   3  64 NW18G29   30.19R WCI  -4
6HR MIN TEMP:  13; 6HR MAX TEMP:  22;

SPENCER        CLOUDY     5  -1  76 NW22G29   30.12R WCI -16
6HR MIN TEMP:   5; 6HR MAX TEMP:  10; 6HR PCP: TRACE;

STORM LAKE     CLOUDY     5   1  85 NW23      30.10S WCI -17
$$

ABBREVIATIONS USED IN REMARKS
   TC - TEMPERATURE IN CELSIUS
  WCI - WIND CHILL INDEX
   HX - HEAT INDEX
  VSB - VISIBILITY




USA.gov is the U.S. government's official web portal to all federal, state and local government web resources and services.